Location: Canazei
(46.4667°N, 11.7667°E)
Time: 05:06:24
(UTC+00:00)

Cosmos 1378 - Pass Details

Date: 21 April 2021
Orbit: 490 x 499 km, 82.5° (Epoch: 15 May)

Event Time Altitude Azimuth Distance (km) Brightness Sun altitude
Exits shadow 02:18:51 49° 242° (WSW) 643 3.2 -18.2°
Maximum altitude 02:19:26 56° 281° (WNW) 590 3.2 -18.1°
Drops below altitude 10° 02:23:05 10° 1° (N) 1,694 6.4 -17.6°
Sets 02:25:14 0° 6° (N) 2,581 7.5 -17.3°
